{"data":{"norad_id":62711,"intl_designator":"2025-009DG","name":"LEMUR-2-ROUNDTRIPPER","alt_names":[],"object_type":"PAYLOAD","status":"ACTIVE","operator":null,"country":"US","launch_date":"2025-01-14","launch_site_code":"AFWTR","launch_vehicle":null,"mission":null,"orbit_class":"UNKNOWN","rcs_meters":null,"size_class":null,"mass_kg":null,"dimensions":null,"purposes":["earth_obs"],"wikipedia_slug":null,"has_3d_model":false,"image_url":null,"decayed_at":null,"tle_current":{"epoch":"2026-05-25T03:13:13.183104Z","epoch_age_seconds":59634,"freshness":"FRESH","line1":"1 62711U 25009DG  26145.13418036  .00006988  00000+0  51886-3 0  9998","line2":"2 62711  97.7230 227.8571 0003532 193.2294 166.8839 15.03348739 74164","mean_motion":15.03348739,"eccentricity":0.0003532,"inclination_deg":97.723,"raan_deg":227.8571,"arg_perigee_deg":193.2294,"mean_anomaly_deg":166.8839,"bstar":0.00051886,"rev_number":7416,"period_min":95.786158104464,"perigee_km":554.12970530305,"apogee_km":559.02838871866,"semimajor_km":6934.7160470109,"source":"CELESTRAK","updated_at":"2026-05-25T13:38:13.538284Z"}}}